Location: Newark
(21.0333°N, 105.8500°E)
Time: 11:35:22
(UTC+00:00)

Envisat - Pass Details

Date: 11 December 2019
Orbit: 764 x 766 km, 98.1° (Epoch: 18 January)

Event Time Altitude Azimuth Distance (km) Brightness Sun altitude
Rises 11:50:51 0° 192° (SSW) 3,215 6.6 -21.5°
Reaches altitude 10° 11:53:27 10° 203° (SSW) 2,291 6.0 -22.1°
Maximum altitude 11:57:43 28° 261° (W) 1,415 5.1 -23.0°
Drops below altitude 10° 12:02:00 10° 320° (NW) 2,298 5.7 -24.0°
Sets 12:04:37 0° 332° (NNW) 3,225 6.4 -24.6°
